Вернуться в каталог

STARLINK-4660

АктивенСвязьVLEO
NORAD 53609·PAYLOAD·🇺🇸 United States

Запущен Aug 28, 2022 с Cape Canaveral Space Force Station

Loading…

Ближайшие Пролёты (ближайшие 24 часа)

TLE

СвежийSource: CelesTrak SupGP

Эпоха: Sep 14, 2026, 14:32 UTC

1 53609C 22104X   26257.60604167 -.00005546  00000+0 -16363-3 0  2574
2 53609  53.1574  94.9298 0001331  86.0377 349.6638 15.34439366    14

Отслеживайте STARLINK-4660 в реальном времени с AllMySat

Download on the App Store